QTR807 RJAA-OTHH

Flight info

Callsign QTR807
Flight time N/A
Altitude 34000
Route REDEK Y60 ISAKY Y592 POTET A593 NIRAT/N0495F360 A593 LAMEN/K0917F360 A593 AKARA/K0919S1100 A593 PK R343 WHA A581 IDGAG W80 ATIVU V155 BONPI W231 WFX V69 KDJ W679 MYD Y3 ENPAT/K0920S1160 Y3 OLGUT B345 NONIM/N0499F380 B345 LKN J20 VEGLU/N0492F400 J20 JJP W58 JDP Z15 RAMSA R462 KE A325 KC A454 MELOM A325 PARET A454 PASOV M564 VAXAS DCT UMAMI DCT EGTAG Q576 RORON T665 OVONA DCT TOSNA
Aircraft A359/H-SDE2E3GHIJ3J4J5LM1ORWXY/LB1D1

Departure

Time 2026-05-04 01:26
Airport Narita International Airport (RJAA)

Arrival

Time N/A
Airport Hamad International Airport (OTHH)
Time Latitude Longitude Altitude Speed Heading
2026-05-04 00:28 35.77248 140.39061 150 ft 0 kts 239°
2026-05-04 01:09 35.77252 140.39071 150 ft 4 kts 237°
2026-05-04 01:09 35.77268 140.39098 150 ft 4 kts 227°
2026-05-04 01:09 35.77288 140.39119 150 ft 4 kts 208°
2026-05-04 01:09 35.77312 140.39128 150 ft 4 kts 164°
2026-05-04 01:10 35.77319 140.39125 150 ft 0 kts 149°
2026-05-04 01:14 35.77299 140.39139 150 ft 8 kts 150°
2026-05-04 01:14 35.77253 140.39172 150 ft 8 kts 150°
2026-05-04 01:14 35.77205 140.39206 150 ft 8 kts 149°
2026-05-04 01:14 35.77158 140.39241 150 ft 8 kts 149°
2026-05-04 01:15 35.77109 140.39277 150 ft 8 kts 149°
2026-05-04 01:15 35.77059 140.39313 150 ft 8 kts 149°
2026-05-04 01:15 35.77008 140.39349 150 ft 9 kts 149°
2026-05-04 01:15 35.76952 140.39390 150 ft 11 kts 149°
2026-05-04 01:16 35.76857 140.39395 150 ft 19 kts 204°
2026-05-04 01:16 35.76718 140.39318 150 ft 23 kts 204°
2026-05-04 01:16 35.76577 140.39239 150 ft 22 kts 204°
2026-05-04 01:16 35.76442 140.39164 150 ft 21 kts 204°
2026-05-04 01:17 35.76310 140.39091 150 ft 20 kts 204°
2026-05-04 01:17 35.76183 140.39019 150 ft 20 kts 204°
2026-05-04 01:17 35.76058 140.38952 150 ft 19 kts 204°
2026-05-04 01:17 35.75938 140.38886 150 ft 19 kts 204°
2026-05-04 01:18 35.75820 140.38820 150 ft 18 kts 204°
2026-05-04 01:18 35.75729 140.38746 150 ft 14 kts 232°
2026-05-04 01:18 35.75687 140.38641 150 ft 13 kts 269°
2026-05-04 01:18 35.75733 140.38562 150 ft 10 kts 326°
2026-05-04 01:19 35.75760 140.38493 150 ft 9 kts 256°
2026-05-04 01:19 35.75765 140.38430 150 ft 7 kts 314°
2026-05-04 01:19 35.75816 140.38381 150 ft 12 kts 328°
2026-05-04 01:19 35.75903 140.38321 150 ft 19 kts 332°
2026-05-04 01:20 35.76042 140.38222 150 ft 25 kts 330°
2026-05-04 01:20 35.76192 140.38114 150 ft 25 kts 329°
2026-05-04 01:20 35.76341 140.38007 150 ft 24 kts 329°
2026-05-04 01:20 35.76486 140.37902 150 ft 23 kts 329°
2026-05-04 01:21 35.76571 140.37825 150 ft 10 kts 291°
2026-05-04 01:21 35.76562 140.37761 150 ft 7 kts 262°
2026-05-04 01:21 35.76581 140.37709 150 ft 7 kts 317°
2026-05-04 01:21 35.76620 140.37677 150 ft 7 kts 329°
2026-05-04 01:22 35.76672 140.37640 150 ft 11 kts 330°
2026-05-04 01:22 35.76747 140.37586 150 ft 14 kts 330°
2026-05-04 01:22 35.76838 140.37521 150 ft 18 kts 329°
2026-05-04 01:22 35.76964 140.37431 149 ft 22 kts 330°
2026-05-04 01:23 35.77096 140.37336 149 ft 22 kts 329°
2026-05-04 01:23 35.77226 140.37242 149 ft 22 kts 329°
2026-05-04 01:23 35.77354 140.37149 149 ft 21 kts 329°
2026-05-04 01:23 35.77455 140.37077 149 ft 12 kts 330°
2026-05-04 01:24 35.77497 140.37004 150 ft 10 kts 269°
2026-05-04 01:24 35.77470 140.36929 150 ft 9 kts 238°
2026-05-04 01:24 35.77436 140.36869 150 ft 6 kts 234°
2026-05-04 01:24 35.77406 140.36855 149 ft 4 kts 167°
2026-05-04 01:25 35.77379 140.36875 149 ft 8 kts 149°
2026-05-04 01:25 35.77188 140.37014 148 ft 60 kts 149°
2026-05-04 01:25 35.76666 140.37390 152 ft 112 kts 150°
2026-05-04 01:25 35.75852 140.37978 153 ft 157 kts 150°
2026-05-04 01:26 35.74899 140.38708 664 ft 153 kts 145°
2026-05-04 01:26 35.74010 140.39520 1023 ft 167 kts 142°
2026-05-04 01:26 35.73095 140.40498 1274 ft 181 kts 147°
2026-05-04 01:26 35.71964 140.41249 1451 ft 192 kts 157°
2026-05-04 01:27 35.70714 140.41991 1575 ft 208 kts 156°
2026-05-04 01:27 35.69376 140.42839 1703 ft 225 kts 154°
2026-05-04 01:27 35.67929 140.43836 1767 ft 247 kts 154°
2026-05-04 01:27 35.66409 140.44861 2065 ft 255 kts 154°
2026-05-04 01:28 35.64871 140.45941 2615 ft 255 kts 154°
2026-05-04 01:28 35.63314 140.47046 3180 ft 254 kts 155°
2026-05-04 01:28 35.61804 140.48122 3673 ft 255 kts 155°
2026-05-04 01:28 35.60252 140.49229 4105 ft 260 kts 156°
2026-05-04 01:29 35.58687 140.50344 4580 ft 262 kts 156°
2026-05-04 01:29 35.57104 140.51484 5018 ft 265 kts 156°
2026-05-04 01:29 35.55508 140.52632 5465 ft 267 kts 156°
2026-05-04 01:29 35.53894 140.53788 5915 ft 269 kts 156°
2026-05-04 01:30 35.52268 140.54952 6335 ft 272 kts 156°
2026-05-04 01:30 35.50624 140.56130 6784 ft 274 kts 156°
2026-05-04 01:30 35.48970 140.57317 7225 ft 277 kts 156°
2026-05-04 01:30 35.47299 140.58513 7648 ft 279 kts 156°
2026-05-04 01:31 35.45560 140.59549 8025 ft 276 kts 169°
2026-05-04 01:31 35.43887 140.59798 8357 ft 268 kts 190°
2026-05-04 01:31 35.42138 140.59137 8753 ft 263 kts 213°
2026-05-04 01:31 35.40795 140.57657 9138 ft 262 kts 234°
2026-05-04 01:32 35.39884 140.55706 9551 ft 265 kts 240°
2026-05-04 01:32 35.38999 140.53752 9967 ft 266 kts 239°
2026-05-04 01:32 35.38059 140.51744 10268 ft 273 kts 239°
2026-05-04 01:32 35.37086 140.49697 10457 ft 283 kts 239°
2026-05-04 01:33 35.36109 140.47547 10621 ft 294 kts 244°
2026-05-04 01:33 35.35551 140.45133 10783 ft 307 kts 263°
2026-05-04 01:33 35.35760 140.42468 10961 ft 322 kts 280°
2026-05-04 01:33 35.36361 140.39775 11160 ft 333 kts 282°
2026-05-04 01:34 35.37020 140.37016 11340 ft 342 kts 282°
2026-05-04 01:34 35.37689 140.34182 11520 ft 350 kts 282°
2026-05-04 01:34 35.38363 140.31279 11713 ft 358 kts 282°
2026-05-04 01:34 35.39048 140.28307 11879 ft 366 kts 282°
2026-05-04 01:35 35.39744 140.25270 12104 ft 374 kts 282°
2026-05-04 01:35 35.40452 140.22180 12425 ft 379 kts 282°
2026-05-04 01:35 35.41167 140.19050 12757 ft 382 kts 282°
2026-05-04 01:35 35.41885 140.15895 13105 ft 384 kts 282°
2026-05-04 01:36 35.42603 140.12729 13410 ft 387 kts 282°
2026-05-04 01:36 35.43324 140.09540 13743 ft 389 kts 282°
2026-05-04 01:36 35.44040 140.06380 14030 ft 391 kts 282°
2026-05-04 01:36 35.44768 140.03157 14329 ft 393 kts 282°
2026-05-04 01:37 35.45498 139.99927 14636 ft 394 kts 282°
2026-05-04 01:37 35.46232 139.96674 14937 ft 396 kts 282°
2026-05-04 01:37 35.46960 139.93413 15237 ft 397 kts 281°
2026-05-04 01:37 35.47382 139.90084 15512 ft 394 kts 268°
2026-05-04 01:38 35.47061 139.86770 15797 ft 391 kts 254°
2026-05-04 01:38 35.46280 139.83571 16085 ft 392 kts 250°
2026-05-04 01:38 35.45325 139.80424 16370 ft 394 kts 247°
2026-05-04 01:38 35.44293 139.77304 16633 ft 395 kts 246°
2026-05-04 01:39 35.43241 139.74184 16909 ft 397 kts 246°
2026-05-04 01:39 35.42196 139.71051 17176 ft 398 kts 247°
2026-05-04 01:39 35.41159 139.67892 17457 ft 400 kts 247°
2026-05-04 01:39 35.40149 139.64760 17710 ft 402 kts 247°
2026-05-04 01:40 35.39460 139.62602 17896 ft 402 kts 248°
2026-05-04 01:40 35.38097 139.58313 18256 ft 404 kts 248°
2026-05-04 01:40 35.37079 139.55096 18485 ft 406 kts 248°
2026-05-04 01:40 35.36053 139.51861 18686 ft 408 kts 248°
2026-05-04 01:41 35.35103 139.48572 18928 ft 410 kts 253°
2026-05-04 01:41 35.34565 139.45134 19169 ft 412 kts 260°
2026-05-04 01:41 35.34249 139.41632 19379 ft 415 kts 263°
2026-05-04 01:41 35.34035 139.38087 19590 ft 417 kts 264°
2026-05-04 01:42 35.33875 139.34582 19821 ft 419 kts 264°
2026-05-04 01:42 35.33733 139.31014 20039 ft 420 kts 265°
2026-05-04 01:42 35.33593 139.27434 20262 ft 421 kts 264°
2026-05-04 01:42 35.33445 139.23850 20444 ft 422 kts 264°
2026-05-04 01:43 35.33282 139.20254 20642 ft 424 kts 264°
2026-05-04 01:43 35.33114 139.16645 20871 ft 425 kts 264°
2026-05-04 01:43 35.32943 139.13019 21098 ft 427 kts 264°
2026-05-04 01:43 35.32770 139.09388 21313 ft 427 kts 264°
2026-05-04 01:44 35.32594 139.05753 21533 ft 428 kts 264°
2026-05-04 01:44 35.32476 139.03341 21672 ft 429 kts 264°
2026-05-04 01:44 35.32295 138.99684 21839 ft 431 kts 264°
2026-05-04 01:44 35.32110 138.96018 22032 ft 432 kts 264°
2026-05-04 01:45 35.31926 138.92340 22213 ft 433 kts 264°
2026-05-04 01:45 35.31740 138.88648 22416 ft 434 kts 264°
2026-05-04 01:45 35.31369 138.81241 22734 ft 437 kts 264°
2026-05-04 01:46 35.31180 138.77531 22924 ft 437 kts 264°
2026-05-04 01:46 35.30991 138.73807 23086 ft 439 kts 264°
2026-05-04 01:46 35.30798 138.70075 23295 ft 440 kts 264°
2026-05-04 01:46 35.30603 138.66334 23496 ft 441 kts 264°
2026-05-04 01:47 35.30407 138.62576 23665 ft 442 kts 263°
2026-05-04 01:47 35.30210 138.58822 23847 ft 443 kts 263°
2026-05-04 01:47 35.30013 138.55093 24018 ft 444 kts 263°
2026-05-04 01:47 35.29811 138.51316 24153 ft 446 kts 263°
2026-05-04 01:48 35.29608 138.47507 24296 ft 447 kts 263°
2026-05-04 01:48 35.29408 138.43721 24511 ft 447 kts 263°
2026-05-04 01:48 35.29204 138.39926 24620 ft 447 kts 263°
2026-05-04 01:48 35.28997 138.36117 24764 ft 447 kts 263°
2026-05-04 01:49 35.28788 138.32313 24919 ft 448 kts 263°
2026-05-04 01:49 35.28576 138.28508 25051 ft 450 kts 263°
2026-05-04 01:49 35.28363 138.24679 25206 ft 451 kts 263°
2026-05-04 01:49 35.28148 138.20857 25329 ft 451 kts 263°
2026-05-04 01:50 35.27930 138.17015 25475 ft 453 kts 263°
2026-05-04 01:50 35.27714 138.13172 25643 ft 453 kts 263°
2026-05-04 01:50 35.27497 138.09322 25789 ft 453 kts 263°
2026-05-04 01:50 35.27279 138.05526 26041 ft 451 kts 263°
2026-05-04 01:51 35.27058 138.01681 26175 ft 453 kts 263°
2026-05-04 01:51 35.26842 137.97826 26222 ft 456 kts 263°
2026-05-04 01:51 35.26609 137.93949 26370 ft 456 kts 263°
2026-05-04 01:51 35.26382 137.90082 26511 ft 456 kts 263°
2026-05-04 01:52 35.26154 137.86234 26713 ft 455 kts 263°
2026-05-04 01:52 35.25926 137.82356 26804 ft 457 kts 263°
2026-05-04 01:52 35.25691 137.78465 26924 ft 457 kts 263°
2026-05-04 01:52 35.25428 137.74580 27045 ft 458 kts 262°
2026-05-04 01:53 35.25141 137.70701 27208 ft 458 kts 262°
2026-05-04 01:53 35.24843 137.66817 27306 ft 459 kts 262°
2026-05-04 01:53 35.24512 137.62932 27419 ft 459 kts 259°
2026-05-04 01:53 35.23885 137.59108 27541 ft 458 kts 253°
2026-05-04 01:54 35.22971 137.55380 27705 ft 458 kts 251°
2026-05-04 01:54 35.21987 137.51727 27852 ft 458 kts 250°
2026-05-04 01:54 35.20945 137.48045 27981 ft 459 kts 249°
2026-05-04 01:54 35.19877 137.44357 28097 ft 460 kts 249°
2026-05-04 01:55 35.18802 137.40666 28221 ft 461 kts 249°
2026-05-04 01:55 35.17725 137.36965 28348 ft 462 kts 249°
2026-05-04 01:55 35.16650 137.33260 28492 ft 462 kts 249°
2026-05-04 01:55 35.15579 137.29558 28650 ft 462 kts 249°
2026-05-04 01:56 35.14512 137.25858 28777 ft 462 kts 249°
2026-05-04 01:56 35.13446 137.22164 28982 ft 461 kts 249°
2026-05-04 01:56 35.12381 137.18470 29105 ft 460 kts 249°
2026-05-04 01:56 35.11317 137.14785 29247 ft 461 kts 249°
2026-05-04 01:57 35.10249 137.11097 29417 ft 460 kts 249°
2026-05-04 01:57 35.09199 137.07473 29606 ft 458 kts 249°
2026-05-04 01:57 35.08134 137.03806 29776 ft 458 kts 249°
2026-05-04 01:57 35.07072 137.00152 29933 ft 457 kts 249°
2026-05-04 01:58 35.06010 136.96499 30116 ft 456 kts 249°
2026-05-04 01:58 35.04948 136.92845 30255 ft 456 kts 249°
2026-05-04 01:58 35.03888 136.89210 30407 ft 456 kts 249°
2026-05-04 01:58 35.02822 136.85562 30591 ft 454 kts 249°
2026-05-04 01:59 35.01760 136.81936 30800 ft 453 kts 249°
2026-05-04 01:59 35.00703 136.78316 30964 ft 453 kts 249°
2026-05-04 01:59 34.99723 136.74651 31132 ft 453 kts 251°
2026-05-04 01:59 34.98820 136.70967 31295 ft 453 kts 252°
2026-05-04 02:00 34.97945 136.67276 31483 ft 452 kts 252°
2026-05-04 02:00 34.97085 136.63648 31653 ft 451 kts 252°
2026-05-04 02:00 34.96203 136.59979 31834 ft 450 kts 252°
2026-05-04 02:00 34.95311 136.56326 32001 ft 450 kts 251°
2026-05-04 02:01 34.94410 136.52674 32158 ft 449 kts 251°
2026-05-04 02:01 34.93502 136.49028 32355 ft 448 kts 251°
2026-05-04 02:01 34.92596 136.45403 32527 ft 447 kts 251°
2026-05-04 02:01 34.91689 136.41784 32664 ft 447 kts 251°
2026-05-04 02:02 34.90777 136.38151 32772 ft 447 kts 251°
2026-05-04 02:02 34.89860 136.34516 32896 ft 447 kts 251°
2026-05-04 02:02 34.88949 136.30898 33075 ft 446 kts 251°
2026-05-04 02:02 34.88040 136.27287 33218 ft 446 kts 251°
2026-05-04 02:03 34.87136 136.23685 33392 ft 445 kts 251°
2026-05-04 02:03 34.86230 136.20086 33554 ft 444 kts 251°
2026-05-04 02:03 34.85333 136.16544 33696 ft 444 kts 251°
2026-05-04 02:03 34.84418 136.12932 33755 ft 446 kts 251°
2026-05-04 02:04 34.82575 136.05666 33766 ft 451 kts 251°
2026-05-04 02:04 34.80723 135.98380 33781 ft 450 kts 251°
2026-05-04 02:05 34.78871 135.91122 33788 ft 448 kts 251°
2026-05-04 02:05 34.77020 135.83887 33786 ft 448 kts 251°
2026-05-04 02:06 34.75161 135.76644 33786 ft 448 kts 251°
2026-05-04 02:06 34.73316 135.69464 33787 ft 448 kts 251°
2026-05-04 02:07 34.71451 135.62242 33794 ft 448 kts 251°
2026-05-04 02:07 34.69586 135.55029 33794 ft 447 kts 251°
2026-05-04 02:08 34.67711 135.47801 33786 ft 447 kts 251°
2026-05-04 02:08 34.65873 135.40619 33784 ft 448 kts 253°
2026-05-04 02:09 34.64445 135.33238 33773 ft 448 kts 256°
2026-05-04 02:09 34.63114 135.25841 33780 ft 448 kts 256°
2026-05-04 02:10 34.61796 135.18437 33780 ft 448 kts 256°
2026-05-04 02:10 34.60471 135.11051 33804 ft 447 kts 256°
2026-05-04 02:11 34.59144 135.03713 33804 ft 448 kts 256°
2026-05-04 02:11 34.57805 134.96342 33805 ft 447 kts 255°
2026-05-04 02:12 34.56460 134.88971 33804 ft 447 kts 255°
2026-05-04 02:12 34.55111 134.81606 33804 ft 446 kts 255°
2026-05-04 02:13 34.53761 134.74250 33804 ft 447 kts 255°
2026-05-04 02:13 34.52415 134.66948 33804 ft 446 kts 255°
2026-05-04 02:14 34.51056 134.59606 33804 ft 446 kts 255°
2026-05-04 02:14 34.49695 134.52277 33804 ft 446 kts 255°
2026-05-04 02:15 34.48332 134.44952 33809 ft 446 kts 255°
2026-05-04 02:15 34.46962 134.37622 33813 ft 446 kts 255°
2026-05-04 02:16 34.45583 134.30287 33813 ft 446 kts 255°
2026-05-04 02:16 34.44204 134.22970 33814 ft 445 kts 255°
2026-05-04 02:17 34.42819 134.15643 33813 ft 446 kts 255°
2026-05-04 02:17 34.41432 134.08333 33822 ft 445 kts 255°
2026-05-04 02:18 34.40041 134.01021 33823 ft 446 kts 255°
2026-05-04 02:18 34.38647 133.93703 33823 ft 445 kts 255°
2026-05-04 02:19 34.37260 133.86452 33826 ft 445 kts 255°
2026-05-04 02:19 34.35858 133.79153 33823 ft 445 kts 255°
2026-05-04 02:20 34.34450 133.71857 33824 ft 445 kts 255°
2026-05-04 02:20 34.33040 133.64563 33842 ft 445 kts 255°
2026-05-04 02:21 34.31456 133.57329 33852 ft 443 kts 251°
2026-05-04 02:21 34.29519 133.50301 33850 ft 443 kts 250°
2026-05-04 02:22 34.27505 133.43255 33850 ft 443 kts 249°
2026-05-04 02:22 34.25482 133.36225 33860 ft 443 kts 249°
2026-05-04 02:23 34.23462 133.29197 33860 ft 442 kts 249°
2026-05-04 02:23 34.21444 133.22175 33859 ft 442 kts 249°
2026-05-04 02:24 34.19428 133.15172 33869 ft 441 kts 249°
2026-05-04 02:24 34.17405 133.08157 33869 ft 441 kts 249°
2026-05-04 02:25 34.15393 133.01206 33869 ft 441 kts 249°
2026-05-04 02:25 34.13364 132.94206 33878 ft 441 kts 249°
2026-05-04 02:26 34.11332 132.87224 33883 ft 441 kts 249°
2026-05-04 02:26 34.09295 132.80244 33899 ft 441 kts 249°
2026-05-04 02:27 34.07255 132.73258 33907 ft 441 kts 249°
2026-05-04 02:27 34.05216 132.66295 33913 ft 440 kts 249°
2026-05-04 02:28 34.03170 132.59336 33919 ft 440 kts 249°
2026-05-04 02:28 34.01123 132.52386 33926 ft 440 kts 249°
2026-05-04 02:29 33.99091 132.45491 33924 ft 440 kts 249°
2026-05-04 02:29 33.97028 132.38519 33923 ft 442 kts 249°
2026-05-04 02:30 33.94961 132.31551 33915 ft 441 kts 249°
2026-05-04 02:30 33.92890 132.24576 33919 ft 442 kts 249°
2026-05-04 02:31 33.90838 132.17581 33923 ft 442 kts 251°
2026-05-04 02:31 33.89227 132.10433 33925 ft 442 kts 254°
2026-05-04 02:32 33.87773 132.03253 33923 ft 442 kts 254°
2026-05-04 02:32 33.86266 131.96136 33934 ft 442 kts 253°
2026-05-04 02:33 33.84694 131.88995 33933 ft 442 kts 253°
2026-05-04 02:33 33.83102 131.81860 33934 ft 442 kts 253°
2026-05-04 02:34 33.81774 131.75928 33936 ft 442 kts 253°
2026-05-04 02:34 33.80174 131.68789 33946 ft 442 kts 253°
2026-05-04 02:35 33.78574 131.61655 33954 ft 442 kts 253°
2026-05-04 02:35 33.76967 131.54503 33952 ft 442 kts 253°
2026-05-04 02:36 33.75357 131.47366 33954 ft 443 kts 253°
2026-05-04 02:36 33.73750 131.40272 33962 ft 443 kts 253°
2026-05-04 02:37 33.72129 131.33136 33955 ft 443 kts 253°
2026-05-04 02:37 33.70505 131.25995 33960 ft 443 kts 253°
2026-05-04 02:38 33.68876 131.18850 33962 ft 444 kts 253°
2026-05-04 02:38 33.67240 131.11697 33972 ft 444 kts 253°
2026-05-04 02:39 33.65607 131.04598 33971 ft 443 kts 253°
2026-05-04 02:39 33.63961 130.97458 33974 ft 444 kts 253°
2026-05-04 02:40 33.62312 130.90317 33967 ft 444 kts 253°
2026-05-04 02:40 33.60661 130.83180 33978 ft 443 kts 253°
2026-05-04 02:41 33.59007 130.76051 33990 ft 443 kts 253°
2026-05-04 02:41 33.57345 130.68913 33999 ft 443 kts 253°
2026-05-04 02:42 33.55692 130.61844 34010 ft 443 kts 252°
2026-05-04 02:42 33.54022 130.54731 34018 ft 443 kts 252°
2026-05-04 02:43 33.52353 130.47635 34018 ft 442 kts 252°
2026-05-04 02:43 33.50198 130.40746 34013 ft 441 kts 245°
2026-05-04 02:44 33.47656 130.34062 34020 ft 441 kts 244°
2026-05-04 02:44 33.45056 130.27422 34017 ft 440 kts 244°
2026-05-04 02:45 33.42468 130.20820 34022 ft 441 kts 244°
2026-05-04 02:45 33.39866 130.14175 34023 ft 441 kts 244°
2026-05-04 02:46 33.37267 130.07529 34032 ft 440 kts 244°
2026-05-04 02:46 33.34664 130.00896 34020 ft 441 kts 244°
2026-05-04 02:47 33.32052 129.94247 34030 ft 441 kts 244°
2026-05-04 02:47 33.29447 129.87626 34035 ft 440 kts 244°
2026-05-04 02:48 33.26828 129.80992 34031 ft 441 kts 244°
2026-05-04 02:48 33.24226 129.74422 34029 ft 441 kts 244°
2026-05-04 02:49 33.21603 129.67796 34035 ft 441 kts 244°
2026-05-04 02:49 33.19050 129.61141 34031 ft 441 kts 246°
2026-05-04 02:50 33.16771 129.54338 34047 ft 441 kts 248°
2026-05-04 02:50 33.14519 129.47517 34046 ft 442 kts 248°
2026-05-04 02:51 33.12222 129.40724 34045 ft 442 kts 247°
2026-05-04 02:51 33.09893 129.33939 34046 ft 442 kts 247°
2026-05-04 02:52 33.07559 129.27162 34044 ft 442 kts 247°
2026-05-04 02:52 33.05223 129.20392 34056 ft 442 kts 247°
2026-05-04 02:53 33.02881 129.13615 34053 ft 441 kts 247°
2026-05-04 02:53 33.00555 129.06905 34064 ft 441 kts 247°
2026-05-04 02:54 32.98208 129.00145 34063 ft 441 kts 247°
2026-05-04 02:54 32.95861 128.93398 34064 ft 441 kts 247°
2026-05-04 02:55 32.92338 128.83278 34071 ft 440 kts 247°
2026-05-04 02:56 32.89983 128.76539 34070 ft 440 kts 247°
2026-05-04 02:56 32.87637 128.69850 34072 ft 440 kts 247°
2026-05-04 02:57 32.85277 128.63130 34071 ft 440 kts 247°
2026-05-04 02:57 32.82919 128.56414 34070 ft 440 kts 247°
2026-05-04 02:58 32.80558 128.49707 34074 ft 440 kts 246°
2026-05-04 02:58 32.78187 128.42995 34074 ft 440 kts 246°
2026-05-04 02:59 32.75816 128.36295 34073 ft 440 kts 246°
2026-05-04 02:59 32.73457 128.29644 34071 ft 440 kts 246°
2026-05-04 03:00 32.71083 128.22954 34070 ft 440 kts 246°
2026-05-04 03:00 32.68702 128.16262 34075 ft 439 kts 246°
2026-05-04 03:01 32.66317 128.09575 34079 ft 439 kts 246°
2026-05-04 03:01 32.63928 128.02898 34082 ft 440 kts 246°
2026-05-04 03:02 32.61535 127.96220 34082 ft 440 kts 246°
2026-05-04 03:02 32.59140 127.89553 34081 ft 439 kts 246°
2026-05-04 03:03 32.56761 127.82939 34081 ft 438 kts 246°
2026-05-04 03:03 32.54367 127.76287 34080 ft 439 kts 246°
2026-05-04 03:04 32.51963 127.69620 34082 ft 439 kts 246°
2026-05-04 03:04 32.49574 127.63019 34082 ft 438 kts 246°
2026-05-04 03:05 32.47166 127.56380 34088 ft 439 kts 246°
2026-05-04 03:05 32.44755 127.49742 34088 ft 438 kts 246°
2026-05-04 03:06 32.42342 127.43112 34096 ft 438 kts 246°
2026-05-04 03:06 32.39925 127.36488 34096 ft 438 kts 246°
2026-05-04 03:07 32.37508 127.29874 34096 ft 437 kts 246°
2026-05-04 03:07 32.35089 127.23260 34088 ft 438 kts 246°
2026-05-04 03:08 32.32665 127.16650 34100 ft 438 kts 246°
2026-05-04 03:08 32.30238 127.10046 34101 ft 438 kts 246°
2026-05-04 03:09 32.27980 127.03422 34101 ft 438 kts 252°
2026-05-04 03:09 32.26332 126.96487 34100 ft 438 kts 253°
2026-05-04 03:10 32.24802 126.89514 34100 ft 438 kts 254°
2026-05-04 03:10 32.23280 126.82532 34100 ft 438 kts 254°
2026-05-04 03:11 32.21744 126.75559 34101 ft 440 kts 253°
2026-05-04 03:11 32.20188 126.68555 34100 ft 441 kts 253°
2026-05-04 03:12 32.18629 126.61527 34101 ft 442 kts 254°
2026-05-04 03:12 32.17126 126.54535 34101 ft 442 kts 254°
2026-05-04 03:13 32.15613 126.47495 34108 ft 443 kts 254°
2026-05-04 03:13 32.14090 126.40467 34109 ft 442 kts 254°
2026-05-04 03:14 32.12558 126.33426 34110 ft 443 kts 254°
2026-05-04 03:14 32.11020 126.26383 34110 ft 443 kts 254°
2026-05-04 03:15 32.09480 126.19349 34110 ft 443 kts 254°
2026-05-04 03:15 32.07933 126.12309 34109 ft 443 kts 253°
2026-05-04 03:16 32.06381 126.05271 34109 ft 443 kts 253°
2026-05-04 03:16 32.04852 125.98229 34110 ft 444 kts 254°
2026-05-04 03:17 32.03358 125.91217 34109 ft 444 kts 254°
2026-05-04 03:17 32.01848 125.84163 34110 ft 443 kts 254°
2026-05-04 03:18 32.00328 125.77119 34110 ft 443 kts 254°
2026-05-04 03:18 31.98775 125.70089 34109 ft 443 kts 253°
2026-05-04 03:19 31.97210 125.63065 34110 ft 444 kts 253°
2026-05-04 03:19 31.95642 125.56033 34110 ft 444 kts 253°
2026-05-04 03:20 31.94067 125.48999 34110 ft 444 kts 253°
2026-05-04 03:20 31.92501 125.42010 34110 ft 444 kts 253°
2026-05-04 03:21 31.90921 125.34982 34110 ft 444 kts 253°
2026-05-04 03:21 31.89342 125.27961 34127 ft 444 kts 253°
2026-05-04 03:22 31.87755 125.20935 34128 ft 444 kts 253°
2026-05-04 03:22 31.86165 125.13910 34128 ft 444 kts 253°
2026-05-04 03:23 31.84580 125.06936 34128 ft 444 kts 253°
2026-05-04 03:23 31.82985 124.99933 34129 ft 444 kts 253°
2026-05-04 03:24 31.81434 124.92912 34128 ft 443 kts 254°
2026-05-04 03:24 31.79926 124.85875 34128 ft 443 kts 254°
2026-05-04 03:25 31.78672 124.80032 34128 ft 443 kts 254°
2026-05-04 03:25 31.77151 124.73012 34128 ft 443 kts 254°
2026-05-04 03:26 31.75373 124.64868 34128 ft 443 kts 254°
2026-05-04 03:26 31.74084 124.58988 34128 ft 443 kts 254°
2026-05-04 03:27 31.72548 124.51989 34128 ft 442 kts 254°
2026-05-04 03:27 31.71021 124.45048 34127 ft 442 kts 254°
2026-05-04 03:28 31.69478 124.38068 34128 ft 441 kts 254°
2026-05-04 03:28 31.67934 124.31092 34129 ft 441 kts 254°
2026-05-04 03:29 31.66388 124.24122 34128 ft 441 kts 254°
2026-05-04 03:29 31.64836 124.17151 34127 ft 441 kts 254°
2026-05-04 03:30 31.63281 124.10191 34129 ft 441 kts 254°
2026-05-04 03:30 31.61723 124.03233 34128 ft 441 kts 254°
2026-05-04 03:31 31.60169 123.96265 34128 ft 441 kts 254°
2026-05-04 03:31 31.58661 123.89345 34128 ft 441 kts 254°
2026-05-04 03:32 31.57141 123.82356 34128 ft 442 kts 254°
2026-05-04 03:32 31.55612 123.75379 34128 ft 441 kts 254°
2026-05-04 03:33 31.54077 123.68410 34127 ft 442 kts 254°
2026-05-04 03:33 31.52536 123.61436 34128 ft 442 kts 254°
2026-05-04 03:34 31.50988 123.54452 34128 ft 443 kts 254°
2026-05-04 03:34 31.49452 123.47458 34128 ft 443 kts 255°
2026-05-04 03:35 31.48104 123.40404 34127 ft 444 kts 256°
2026-05-04 03:35 31.46818 123.33371 34128 ft 444 kts 256°
2026-05-04 03:36 31.45496 123.26300 34127 ft 445 kts 256°
2026-05-04 03:36 31.44150 123.19223 34128 ft 445 kts 256°
2026-05-04 03:37 31.42792 123.12148 34129 ft 445 kts 256°
2026-05-04 03:37 31.41430 123.05079 34128 ft 445 kts 256°
2026-05-04 03:38 31.40066 122.98012 34127 ft 445 kts 256°
2026-05-04 03:38 31.38704 122.90973 34128 ft 446 kts 256°
2026-05-04 03:39 31.37329 122.83891 34128 ft 446 kts 256°
2026-05-04 03:39 31.35950 122.76812 34128 ft 446 kts 256°
2026-05-04 03:40 31.34589 122.69723 34128 ft 446 kts 256°
2026-05-04 03:40 31.33244 122.62630 34127 ft 446 kts 256°
2026-05-04 03:41 31.31900 122.55581 34127 ft 447 kts 256°
2026-05-04 03:41 31.30540 122.48494 34127 ft 447 kts 256°
2026-05-04 03:42 31.29175 122.41398 34128 ft 447 kts 256°
2026-05-04 03:42 31.27841 122.34307 34128 ft 447 kts 256°
2026-05-04 03:43 31.26509 122.27208 34128 ft 447 kts 256°
2026-05-04 03:43 31.25168 122.20117 34128 ft 447 kts 256°
2026-05-04 03:44 31.23821 122.13026 34129 ft 447 kts 256°
2026-05-04 03:44 31.22467 122.05936 34127 ft 447 kts 256°
2026-05-04 03:45 31.21111 121.98845 34129 ft 447 kts 256°
2026-05-04 03:45 31.19752 121.91752 34128 ft 448 kts 256°
2026-05-04 03:46 31.18402 121.84690 34126 ft 449 kts 257°
2026-05-04 03:46 31.17940 121.77411 34127 ft 453 kts 271°
2026-05-04 03:47 31.19144 121.70133 34129 ft 459 kts 281°
2026-05-04 03:47 31.20901 121.62941 34128 ft 460 kts 282°
2026-05-04 03:48 31.22724 121.55770 34127 ft 461 kts 282°
2026-05-04 03:48 31.24523 121.48583 34127 ft 460 kts 282°
2026-05-04 03:49 31.26291 121.41396 34127 ft 460 kts 282°
2026-05-04 03:49 31.28048 121.34206 34129 ft 460 kts 282°
2026-05-04 03:50 31.29975 121.27115 34128 ft 462 kts 285°
2026-05-04 03:50 31.32236 121.20115 34128 ft 463 kts 287°
2026-05-04 03:51 31.34510 121.13070 34128 ft 463 kts 286°
2026-05-04 03:51 31.36724 121.05998 34129 ft 463 kts 285°
2026-05-04 03:52 31.38875 120.98892 34127 ft 463 kts 285°
2026-05-04 03:52 31.41013 120.91788 34128 ft 463 kts 285°
2026-05-04 03:53 31.43160 120.84673 34128 ft 463 kts 285°
2026-05-04 03:53 31.45307 120.77556 34131 ft 463 kts 285°
2026-05-04 03:54 31.47446 120.70452 34138 ft 463 kts 285°
2026-05-04 03:54 31.49577 120.63365 34138 ft 463 kts 285°
2026-05-04 03:55 31.51715 120.56232 34136 ft 463 kts 285°
2026-05-04 03:55 31.53841 120.49114 34138 ft 462 kts 285°
2026-05-04 03:56 31.55968 120.41980 34137 ft 463 kts 285°
2026-05-04 03:56 31.58061 120.34839 34135 ft 462 kts 282°
2026-05-04 03:57 31.59147 120.27492 34137 ft 455 kts 272°
2026-05-04 03:57 31.59590 120.20143 34137 ft 455 kts 270°
2026-05-04 03:58 31.60094 120.09032 34129 ft 454 kts 270°
2026-05-04 03:58 31.60435 120.01629 34128 ft 455 kts 270°
2026-05-04 03:59 31.60785 119.94222 34133 ft 455 kts 270°
2026-05-04 03:59 31.61135 119.86813 34137 ft 455 kts 270°
2026-05-04 04:00 31.61482 119.79410 34136 ft 454 kts 270°
2026-05-04 04:00 31.61821 119.71995 34137 ft 454 kts 270°
2026-05-04 04:01 31.62156 119.64586 34137 ft 455 kts 270°
2026-05-04 04:01 31.62515 119.57180 34138 ft 455 kts 270°
2026-05-04 04:02 31.62878 119.49760 34130 ft 455 kts 270°
2026-05-04 04:02 31.63232 119.42394 34128 ft 455 kts 270°
2026-05-04 04:03 31.63580 119.34974 34126 ft 455 kts 270°
2026-05-04 04:03 31.63916 119.27559 34129 ft 455 kts 270°
2026-05-04 04:04 31.64247 119.20170 34128 ft 455 kts 270°
2026-05-04 04:04 31.64578 119.12756 34127 ft 455 kts 270°
2026-05-04 04:05 31.64883 119.06586 34128 ft 455 kts 270°